This demonstration page uses our WeatherBlox Daily Observations layout. Learn more.

39.29038, -76.61219

Hourly Observations for June 28, 2019

Temp ( °F °C ) Dew Point ( °F °C ) Humidity (%) Winds ( mph kmh ) Pressure ( in mb ) Visibility ( mi km ) Precip ( " mm )
12:54 am 00:54 undefined 79 26.1 63 17.2 58 58 undefined N/A 30.12 1020 N/A 0 0
1:54 am 01:54 undefined 79 26.1 64 17.8 60 60 undefined N/A 30.12 1020 N/A 0 0
2:54 am 02:54 undefined 79 26.1 64 17.8 60 60 undefined N/A 30.12 1020 N/A 0 0
3:54 am 03:54 undefined 77 25 64 17.8 64 64 undefined N/A 30.12 1020 N/A 0 0
4:54 am 04:54 undefined 77 25 64 17.8 64 64 undefined N/A 30.12 1020 N/A 0 0
5:54 am 05:54 undefined 76 24.4 65 18.3 69 69 undefined N/A 30.12 1020 N/A 0 0
6:54 am 06:54 undefined 78 25.6 65 18.3 64 64 undefined N/A 30.15 1021 N/A 0 0
7:54 am 07:54 undefined 82 27.8 66 18.9 58 58 undefined N/A 30.15 1021 N/A 0 0
8:54 am 08:54 undefined 85 29.4 67 19.4 55 55 undefined N/A 30.15 1021 N/A 0 0
9:54 am 09:54 undefined 88 31.1 67 19.4 50 50 undefined N/A 30.15 1021 N/A 0 0
10:54 am 10:54 undefined 90 32.2 68 20 48 48 undefined N/A 30.15 1021 N/A 0 0
11:54 am 11:54 undefined 92 33.3 67 19.4 44 44 undefined N/A 30.15 1021 N/A 0 0
12:54 pm 12:54 undefined 94 34.4 67 19.4 41 41 undefined N/A 30.12 1020 N/A 0 0
1:54 pm 13:54 undefined 94 34.4 71 21.7 48 48 undefined N/A 30.12 1020 N/A 0 0
2:54 pm 14:54 undefined 91 32.8 70 21.1 50 50 undefined N/A 30.09 1019 N/A 0 0
3:54 pm 15:54 undefined 91 32.8 70 21.1 50 50 undefined N/A 30.09 1019 N/A 0 0
4:54 pm 16:54 undefined 93 33.9 70 21.1 47 47 undefined N/A 30.06 1018 N/A 0 0
5:54 pm 17:54 undefined 89 31.7 68 20 50 50 undefined N/A 30.06 1018 N/A 0 0
6:54 pm 18:54 undefined 77 25 68 20 74 74 undefined N/A 30.12 1020 N/A 0.03 0.762
7:54 pm 19:54 undefined 81 27.2 63 17.2 54 54 undefined N/A 30.09 1019 N/A 0 0
8:54 pm 20:54 undefined 83 28.3 63 17.2 51 51 undefined N/A 30.09 1019 N/A 0 0
9:54 pm 21:54 undefined 84 28.9 63 17.2 49 49 undefined N/A 30.09 1019 N/A 0 0
10:54 pm 22:54 undefined 79 26.1 69 20.6 72 72 undefined N/A 30.09 1019 N/A 0 0
11:54 pm 23:54 undefined 81 27.2 68 20 65 65 undefined N/A 30.09 1019 N/A 0 0

Powered by AerisWeather